User: anonymous   Login
Location: Unspecified
(0.0000°N, 0.0000°E)
Time: 01:58:15
(UTC+00:00)
Language:

NODES 1 - Orbit

View from above orbital plane
View from above orbital plane
View from above satellite
View from above satellite

Ground track
Ground track

The orbit data is extracted from the following two-line orbital elements,

1 41477U 98067HX  17262.38431888  .17021661  12538-4  46079-3 0  9990
2 41477  51.6074 225.8859 0003017 249.6794 110.5489 16.45625800 77086
Epoch (UTC): 19 September 2017 09:13:25
Eccentricity: 0.0003017
inclination: 51.6074°
perigee height: 149 km
apogee height: 153 km
right ascension of ascending node: 225.8859°
argument of perigee: 249.6794°
revolutions per day: 16.45625800
mean anomaly at epoch: 110.5489°
orbit number at epoch: 7708

The dashed part of the orbit path shows where the satellite is in the earth's shadow,  

DLR